FENGYUN 1C DEB *

Satellite information

Favourite Embed

Satellite Type and Status

DEBRISIN ORBIT

Key statistics

Satellite FENGYUN 1C DEB * at a glance.

Uptime

9555

Days in orbit

Revolutions

≈ 14.4

Per day

Orbit

SSO

Sun Synchronous Orbit

Inclination

99.0

Latest

Satellite identification and parameters

Extended collection of information and parameters for FENGYUN 1C DEB *.

Object identification

Identified? True

Debris? True

Object name: FENGYUN 1C DEB *

International designator: 1999-025FBB

Object number (NORAD): 47025

Object ID (CCSDS): 47025

Country: PEOPLES REPUBLIC OF CHINA (PRC)

Current information (Y/N): Y

RCS size: SMALL

Orbital parameters

Period: 99.748 minutes

Inclination: 99.0466 deg

SMA: 7124.633 km

Apoapsis: 776.962 km

Periapsis: 716.035 km

RAAN: 22.8915 deg

Eccentricy: 0.0042758

Argument of periapsis: 112.4211 deg

Mean anomaly: 277.4994 deg

Mean motion: 14.43640212 rev/day

Mean motion (dot): 0.00004975 rev/day2

B* drag term: 0.0014636 1/REarth

Two-line elements (TLE)

Creation date: July 5, 2025, 5:45 p.m.

Reference frame: TEME

Reference center: EARTH

Epoch: July 5, 2025, 12:21 p.m. UTC

TLE line 0: 0 FENGYUN 1C DEB *

TLE line 1: 1 47025U 99025FBB 25186.51525639 .00004975 00000-0 14636-2 0 9998

TLE line 2: 2 47025 99.0466 22.8915 0042758 112.4211 277.4994 14.43640212604288

Live tracking on map

Real-time ground track for satellite FENGYUN 1C DEB *.

In-orbit conjunctions

A list of the most updated potential collisions computed for object FENGYUN 1C DEB *.

Target Orbit TCA Probability of collision Miss distance Type
SL-8 R/B LEO 2025-05-24 21:25:53 0.0001740194 630.0 (m) ROCKET BODY
IRIDIUM 920 LEO 2025-02-10 07:29:09 0.0009828628 203.0 (m) PAYLOAD
FEDSAT SSO 2024-11-25 00:05:34 0.0001477451 862.0 (m) PAYLOAD
SL-16 DEB LEO 2024-11-15 02:39:48 0.0001598799 169.0 (m) DEBRIS
SL-16 DEB LEO 2024-11-15 01:50:12 0.0001514968 835.0 (m) DEBRIS

Associated space launch

Chinese polar orbiting meteorological satellite

FENGYUN 1C DEB * was lifted into orbit during the mission ‘Long March 4B | Feng Yun 1C’, on board a Long March 4B space rocket.

The launch took place on May 10, 1999, 1:33 a.m. from Launch Complex 7.

For more information about the launch, click the button.

Launch to space Long March 4B | Feng Yun 1C
Long March 4B | Feng Yun 1C

Agency: N/A

Status: Launch Successful

Launch date: May 10, 1999, 1:33 a.m. UTC

Rocket: Long March 4B

Launch pad: Launch Complex 7

Location: Taiyuan Satellite Launch Center, People's Republic of China

...

Latest news about this satellite

There are no fresh news available about this satellite. Check back as we update our databases every day.


Newsletter sign-up

Weekly statistics, charts and insights to help you stay on top of the space industry.